When you browse on this site, cookies collect data to enhance your experience and personalize the content and advertising you see.
Visit our Privacy Policy to learn more. By continuing to use the site, you agree to this use of cookies and data.
  • In Spain
  • List of Countries
  • For 7 days
  • Water Temperature
  • Satellite Maps
  • Weather Map
  • Weather Widgets
  • user-avatar
    Login

    Hourly Weather Tarija

    Today, 20 November, Tuesday

    Time Temperature Precipitation Wind Pressure Humidity
    00:00 +18°C° 0 mm 1 mps 597 mmHg 92%
    01:00 +18°C° 0 mm 1 mps 597 mmHg 92%
    02:00 +18°C° 0 mm 1 mps 596 mmHg 94%
    03:00 +18°C° 0 mm 1 mps 596 mmHg 94%
    04:00 +18°C° 0 mm 1 mps 596 mmHg 93%
    05:00 +18°C° 0 mm 1 mps 597 mmHg 93%
    06:00 +18°C° 0 mm 1 mps 597 mmHg 89%
    07:00 +19°C° 0 mm 1 mps 597 mmHg 85%
    08:00 +20°C° 0 mm 1 mps 598 mmHg 81%
    09:00 +20°C° 0 mm 2 mps 598 mmHg 75%
    10:00 +23°C° 0 mm 2 mps 598 mmHg 68%
    11:00 +24°C° 0 mm 3 mps 599 mmHg 62%
    12:00 +24°C° 0.1 mm 3 mps 598 mmHg 63%
    13:00 +24°C° 0.1 mm 3 mps 598 mmHg 63%
    14:00 +23°C° 0.1 mm 4 mps 597 mmHg 63%
    15:00 +24°C° 0.1 mm 3 mps 597 mmHg 67%
    16:00 +22°C° 0.1 mm 3 mps 596 mmHg 71%
    17:00 +21°C° 0.1 mm 3 mps 596 mmHg 75%
    18:00 +20°C° 0.1 mm 3 mps 596 mmHg 78%
    19:00 +20°C° 0.1 mm 2 mps 597 mmHg 81%
    20:00 +19°C° 0.1 mm 2 mps 597 mmHg 84%
    21:00 +19°C° 0.1 mm 2 mps 598 mmHg 85%
    22:00 +18°C° 0.1 mm 2 mps 598 mmHg 87%
    23:00 +19°C° 0.1 mm 1 mps 598 mmHg 88%

    Tomorrow, 21 November, Wednesday

    Time Temperature Precipitation Wind Pressure Humidity
    00:00 +19°C° 0 mm 1 mps 598 mmHg 89%
    01:00 +19°C° 0 mm 1 mps 598 mmHg 90%
    02:00 +18°C° 0 mm 1 mps 597 mmHg 91%
    03:00 +18°C° 0 mm 1 mps 597 mmHg 91%
    04:00 +18°C° 0 mm 1 mps 597 mmHg 91%
    05:00 +18°C° 0 mm 1 mps 597 mmHg 91%
    06:00 +19°C° 0 mm 1 mps 597 mmHg 84%
    07:00 +21°C° 0 mm 1 mps 598 mmHg 76%
    08:00 +22°C° 0 mm 1 mps 599 mmHg 68%
    09:00 +24°C° 0 mm 1 mps 599 mmHg 62%
    10:00 +25°C° 0 mm 2 mps 599 mmHg 56%
    11:00 +27°C° 0 mm 3 mps 600 mmHg 51%
    12:00 +27°C° 0.3 mm 3 mps 599 mmHg 53%
    13:00 +27°C° 0.3 mm 4 mps 598 mmHg 55%
    14:00 +27°C° 0.3 mm 4 mps 597 mmHg 57%
    15:00 +26°C° 0.3 mm 4 mps 596 mmHg 63%
    16:00 +25°C° 0.3 mm 4 mps 596 mmHg 68%
    17:00 +24°C° 0.3 mm 3 mps 595 mmHg 74%
    18:00 +22°C° 0.3 mm 3 mps 595 mmHg 78%
    19:00 +21°C° 0.3 mm 3 mps 595 mmHg 83%
    20:00 +20°C° 0.3 mm 3 mps 595 mmHg 88%
    21:00 +20°C° 0.2 mm 2 mps 596 mmHg 88%
    22:00 +20°C° 0.2 mm 2 mps 596 mmHg 89%
    23:00 +20°C° 0.2 mm 2 mps 596 mmHg 90%

    Day after tomorrow, 22 November, Thursday

    Time Temperature Precipitation Wind Pressure Humidity
    00:00 +19°C° 0.1 mm 2 mps 596 mmHg 91%
    01:00 +19°C° 0.1 mm 2 mps 595 mmHg 91%
    02:00 +19°C° 0.1 mm 2 mps 595 mmHg 91%
    03:00 +19°C° 0.2 mm 2 mps 595 mmHg 90%
    04:00 +18°C° 0.2 mm 2 mps 594 mmHg 90%
    05:00 +19°C° 0.2 mm 1 mps 594 mmHg 89%
    06:00 +21°C° 0.1 mm 1 mps 595 mmHg 82%
    07:00 +22°C° 0.1 mm 1 mps 596 mmHg 75%
    08:00 +24°C° 0.1 mm 1 mps 597 mmHg 67%
    09:00 +25°C° 0.1 mm 1 mps 597 mmHg 61%
    10:00 +27°C° 0.1 mm 2 mps 597 mmHg 55%
    11:00 +28°C° 0.1 mm 2 mps 597 mmHg 49%
    12:00 +28°C° 1.6 mm 3 mps 597 mmHg 51%
    13:00 +28°C° 1.6 mm 3 mps 596 mmHg 53%
    14:00 +28°C° 1.6 mm 4 mps 595 mmHg 55%
    15:00 +27°C° 1.8 mm 4 mps 595 mmHg 61%
    16:00 +25°C° 1.8 mm 4 mps 594 mmHg 67%
    17:00 +24°C° 1.8 mm 3 mps 593 mmHg 73%
    18:00 +22°C° 1.8 mm 3 mps 594 mmHg 78%
    19:00 +21°C° 1.8 mm 2 mps 594 mmHg 82%
    20:00 +20°C° 1.8 mm 2 mps 594 mmHg 86%
    21:00 +20°C° 0.8 mm 2 mps 594 mmHg 87%
    22:00 +20°C° 0.8 mm 2 mps 595 mmHg 89%
    23:00 +20°C° 0.8 mm 2 mps 595 mmHg 90%

    23 November, Friday

    Time Temperature Precipitation Wind Pressure Humidity
    00:00 +20°C° 0.9 mm 1 mps 595 mmHg 90%
    01:00 +20°C° 0.9 mm 1 mps 594 mmHg 91%
    02:00 +20°C° 0.9 mm 1 mps 594 mmHg 91%
    03:00 +19°C° 1.2 mm 2 mps 594 mmHg 92%
    04:00 +18°C° 1.2 mm 3 mps 594 mmHg 92%
    05:00 +18°C° 1.2 mm 3 mps 594 mmHg 93%
    06:00 +18°C° 1.4 mm 4 mps 595 mmHg 91%
    07:00 +18°C° 1.4 mm 4 mps 596 mmHg 89%
    08:00 +18°C° 1.4 mm 4 mps 596 mmHg 88%
    09:00 +19°C° 0.6 mm 4 mps 596 mmHg 83%
    10:00 +19°C° 0.6 mm 4 mps 597 mmHg 79%
    11:00 +20°C° 0.6 mm 4 mps 597 mmHg 74%
    12:00 +21°C° 0.2 mm 4 mps 597 mmHg 69%
    13:00 +23°C° 0.2 mm 4 mps 597 mmHg 63%
    14:00 +25°C° 0.2 mm 4 mps 597 mmHg 57%
    15:00 +25°C° 0.2 mm 4 mps 596 mmHg 61%
    16:00 +23°C° 0.2 mm 4 mps 596 mmHg 64%
    17:00 +22°C° 0.2 mm 5 mps 595 mmHg 68%
    18:00 +21°C° 0.6 mm 4 mps 595 mmHg 76%
    19:00 +20°C° 0.6 mm 4 mps 596 mmHg 83%
    20:00 +18°C° 0.6 mm 3 mps 596 mmHg 91%
    21:00 +18°C° 0.8 mm 3 mps 596 mmHg 91%
    22:00 +18°C° 0.8 mm 3 mps 597 mmHg 92%
    23:00 +17°C° 0.8 mm 2 mps 597 mmHg 92%

    24 November, Saturday

    Time Temperature Precipitation Wind Pressure Humidity
    00:00 +17°C° 0.4 mm 2 mps 597 mmHg 92%
    01:00 +17°C° 0.4 mm 2 mps 596 mmHg 92%
    02:00 +17°C° 0.4 mm 2 mps 596 mmHg 92%
    03:00 +17°C° 0.1 mm 2 mps 596 mmHg 92%
    04:00 +17°C° 0.1 mm 2 mps 596 mmHg 93%
    05:00 +16°C° 0.1 mm 2 mps 596 mmHg 93%
    06:00 +17°C° 0.1 mm 2 mps 596 mmHg 90%
    07:00 +17°C° 0.1 mm 2 mps 597 mmHg 87%
    08:00 +18°C° 0.1 mm 2 mps 598 mmHg 83%
    09:00 +19°C° 0.1 mm 2 mps 598 mmHg 77%
    10:00 +21°C° 0.1 mm 3 mps 598 mmHg 70%
    11:00 +22°C° 0.1 mm 3 mps 598 mmHg 63%
    12:00 +22°C° 0.1 mm 3 mps 598 mmHg 63%
    13:00 +23°C° 0.1 mm 4 mps 597 mmHg 62%
    14:00 +23°C° 0.1 mm 4 mps 597 mmHg 61%
    15:00 +22°C° 0.2 mm 4 mps 596 mmHg 65%
    16:00 +22°C° 0.2 mm 4 mps 595 mmHg 69%
    17:00 +21°C° 0.2 mm 3 mps 595 mmHg 73%
    18:00 +20°C° 0.4 mm 3 mps 595 mmHg 78%
    19:00 +19°C° 0.4 mm 3 mps 596 mmHg 83%
    20:00 +18°C° 0.4 mm 2 mps 596 mmHg 89%
    21:00 +18°C° 0.6 mm 2 mps 597 mmHg 90%
    22:00 +18°C° 0.6 mm 2 mps 597 mmHg 91%
    23:00 +18°C° 0.6 mm 2 mps 597 mmHg 93%

    25 November, Sunday

    Time Temperature Precipitation Wind Pressure Humidity
    00:00 +17°C° 0.8 mm 2 mps 597 mmHg 93%
    01:00 +17°C° 0.8 mm 2 mps 596 mmHg 93%
    02:00 +18°C° 0.8 mm 1 mps 596 mmHg 93%
    03:00 +18°C° 0.3 mm 1 mps 596 mmHg 93%
    04:00 +18°C° 0.3 mm 1 mps 596 mmHg 93%
    05:00 +18°C° 0.3 mm 1 mps 596 mmHg 93%
    06:00 +18°C° 0.1 mm 1 mps 596 mmHg 91%
    07:00 +19°C° 0.1 mm 1 mps 597 mmHg 88%
    08:00 +19°C° 0.1 mm 1 mps 597 mmHg 86%
    09:00 +20°C° 0.1 mm 1 mps 597 mmHg 81%
    10:00 +21°C° 0.1 mm 2 mps 597 mmHg 75%
    11:00 +23°C° 0.1 mm 2 mps 598 mmHg 70%
    12:00 +22°C° 0.7 mm 3 mps 597 mmHg 70%
    13:00 +22°C° 0.7 mm 3 mps 596 mmHg 71%
    14:00 +24°C° 0.7 mm 3 mps 596 mmHg 72%
    15:00 +22°C° 1.1 mm 3 mps 595 mmHg 76%
    16:00 +21°C° 1.1 mm 3 mps 595 mmHg 80%
    17:00 +20°C° 1.1 mm 3 mps 594 mmHg 85%
    18:00 +20°C° 1.4 mm 3 mps 595 mmHg 87%
    19:00 +19°C° 1.4 mm 2 mps 595 mmHg 90%
    20:00 +19°C° 1.4 mm 2 mps 596 mmHg 92%
    21:00 +18°C° 2.4 mm 2 mps 596 mmHg 93%
    22:00 +18°C° 2.4 mm 2 mps 596 mmHg 93%
    23:00 +19°C° 2.4 mm 1 mps 596 mmHg 94%
    Show more